[[{"header":{"parameterUnit":"m.s-1","parameterCategory":1,"la1":30.2991,"la2":30.254,"lo1":-89.0895,"lo2":-89.0444,"dy":0.0017,"dx":0.0017,"nx":28,"ny":28,"refTime":"2025-03-28T21:00:00:Z","depth":0,"parameterNumber":2,"parameterNumberName":"U-component_of_WINDS"},"data":[0,0,0,0,0,0,0,0,0,0,0,0,0,0,0,0,0,0,0,0,0,0,0,0,0,0,0,0,0,0,0,0,0,0,0,0,0,0,0,0,0,0,0,0,0,0,0,0,0,0,0,0,0,0,0,0,0,0,-2.7141,-2.7143,0,-2.7296,-2.7298,-2.73,-2.7352,-2.7352,-2.7351,-2.7351,-2.751,-2.7515,-2.752,0,0,0,0,0,0,0,0,0,0,0,0,0,-2.689,-2.6894,-2.7141,-2.7143,-2.7145,-2.7296,-2.7298,-2.73,-2.7352,-2.7352,-2.7351,-2.735,-2.7508,-2.7514,-2.752,0,0,0,0,0,0,0,0,0,0,0,0,0,-2.7018,-2.6896,-2.714,-2.7189,-2.7195,-2.7295,-2.7298,-2.7301,-2.7353,-2.7352,-2.7351,-2.735,-2.7507,-2.7514,-2.7521,-2.7585,0,0,-2.7543,-2.7546,0,0,0,0,0,0,0,0,-2.701,-2.7027,-2.718,-2.7186,-2.7193,-2.7304,-2.7268,-2.7396,-2.7353,-2.7293,-2.735,-2.7349,-2.7442,-2.7455,-2.7486,-2.7592,-2.7599,-2.7544,-2.7548,-2.7551,-2.7553,0,0,0,0,0,0,0,-2.7001,-2.702,-2.7202,-2.7182,-2.719,-2.7203,-2.722,-2.7293,-2.7371,-2.7298,-2.7302,-2.732,-2.7446,-2.7479,-2.749,-2.7601,-2.7543,-2.755,-2.7554,-2.7557,-2.7767,-2.7768,0,0,0,0,0,0,-2.6984,-2.7013,-2.7197,-2.7207,-2.7097,-2.7208,-2.7228,-2.7269,-2.737,-2.7385,-2.732,-2.7322,-2.7467,-2.7482,-2.7496,-2.7577,-2.7551,-2.7558,-2.7562,-2.7766,-2.7767,-2.7769,0,0,0,0,0,0,-2.6979,-2.7,-2.7191,-2.7111,-2.7136,-2.7214,-2.726,-2.7273,-2.7306,-2.7387,-2.7402,-2.734,-2.7467,-2.7486,-2.7562,-2.7583,-2.7561,-2.7568,-2.7765,-2.7766,-2.7768,-2.7739,0,0,0,0,0,0,-2.6971,-2.6998,-2.7023,-2.7111,-2.714,-2.7254,-2.7261,-2.7276,-2.7318,-2.7321,-2.7409,-2.7423,-2.7467,-2.7551,-2.7569,-2.7593,-2.7573,-2.7763,-2.7765,-2.7768,-2.7739,-2.774,-2.7741,0,0,0,0,0,-2.6962,-2.7009,-2.7024,-2.7046,-2.7173,-2.7255,-2.7272,-2.7322,-2.732,-2.7345,-2.7398,-2.742,-2.7578,-2.7558,-2.7579,-2.7605,-2.7762,-2.7765,-2.7767,-2.7738,-2.774,-2.7741,0,0,0,0,0,0,-2.6921,-2.7021,-2.7039,-2.7115,-2.7176,-2.7264,-2.7298,-2.7322,-2.7385,-2.7385,-2.7445,-2.7464,-2.7536,-2.7579,-2.7555,-2.7672,-2.7671,-2.7678,-2.7642,-2.7644,-2.7645,-2.7633,-2.7579,0,0,0,0,0,-2.692,-2.6979,-2.7063,-2.7123,-2.7152,-2.722,-2.7257,-2.7291,-2.7356,-2.7383,-2.744,-2.7503,-2.7567,-2.7608,-2.7671,-2.7745,-2.7765,-2.7774,-2.7775,-2.7775,-2.778,-2.7822,-2.7827,-2.7778,-2.7778,-2.7778,0,0,-2.692,-2.6982,-2.7016,-2.7116,-2.7167,-2.7226,-2.7241,-2.7303,-2.7347,-2.7392,-2.7467,-2.7512,-2.7587,-2.7662,-2.7698,-2.7699,-2.7799,-2.7779,-2.7779,-2.7784,-2.7826,-2.783,-2.7834,-2.778,-2.7779,-2.7779,0,0,-2.695,-2.7003,-2.7058,-2.7109,-2.7187,-2.7231,-2.7244,-2.7329,-2.736,-2.7437,-2.7471,-2.7525,-2.7634,-2.7686,-2.7726,-2.7776,-2.7799,-2.7795,-2.78,-2.7841,-2.7844,-2.7848,-2.7865,-2.7871,-2.78,-2.78,-2.78,0,-2.6941,-2.7031,-2.7083,-2.7144,-2.7187,-2.723,-2.7286,-2.7333,-2.7427,-2.7456,-2.7456,-2.7594,-2.7647,-2.7734,-2.7746,-2.7778,-2.7795,-2.7785,-2.784,-2.7844,-2.7848,-2.7865,-2.7871,-2.7799,-2.7799,-2.7799,-2.7799,0,-2.7015,-2.7077,-2.7112,-2.7201,-2.7249,-2.7306,-2.7368,-2.7409,-2.7439,-2.7483,-2.756,-2.7626,-2.7703,-2.7727,-2.7756,-2.7819,-2.7817,-2.7828,-2.7828,-2.7851,-2.7868,-2.7875,-2.7797,-2.7798,-2.7798,-2.7798,0,0,-2.7022,-2.714,-2.7152,-2.7193,-2.7282,-2.7331,-2.7391,-2.7466,-2.75,-2.7564,-2.7615,-2.7707,-2.7717,-2.7763,-2.7799,-2.7834,-2.7869,-2.7841,-2.7843,-2.7843,-2.7941,-2.7932,-2.7938,-2.7885,-2.7886,-2.7887,-2.7935,0,-2.7063,-2.7172,-2.7221,-2.7307,-2.7365,-2.7407,-2.7459,-2.7519,-2.7563,-2.7618,-2.7667,-2.773,-2.7739,-2.7767,-2.7804,-2.7856,-2.7889,-2.7854,-2.7933,-2.7935,-2.7912,-2.7947,-2.7938,-2.7979,-2.7942,-2.7943,-2.7944,0,-2.7126,-2.7189,-2.7281,-2.7362,-2.7388,-2.7434,-2.7507,-2.756,-2.7629,-2.7658,-2.7709,-2.7743,-2.7808,-2.7804,-2.7894,-2.7869,-2.7904,-2.7935,-2.7938,-2.7946,-2.794,-2.7956,-2.7994,-2.7999,-2.7955,-2.7954,-2.7953,0,-2.7121,-2.7229,-2.7298,-2.7332,-2.7429,-2.746,-2.7502,-2.7571,-2.7613,-2.7677,-2.7704,-2.7775,-2.7813,-2.7867,-2.792,-2.7912,-2.8004,-2.8005,-2.803,-2.8029,-2.8047,-2.8045,-2.809,-2.8071,-2.8071,-2.8071,-2.8071,0,-2.7161,-2.7215,-2.7297,-2.734,-2.7402,-2.7458,-2.7518,-2.7564,-2.7624,-2.7676,-2.7717,-2.7765,-2.7831,-2.7888,-2.7929,-2.7997,-2.8014,-2.8039,-2.805,-2.8035,-2.8032,-2.8059,-2.8057,-2.8072,-2.8072,-2.8072,-2.8071,0,-2.7166,-2.7223,-2.7301,-2.7387,-2.7409,-2.7451,-2.7525,-2.7568,-2.7613,-2.7678,-2.7697,-2.7768,-2.7837,-2.7894,-2.7985,-2.8013,-2.8082,-2.8095,-2.8059,-2.8064,-2.8086,-2.8083,-2.8149,-2.816,-2.8134,-2.8134,-2.8134,0,-2.7188,-2.723,-2.7321,-2.7358,-2.7399,-2.7459,-2.7502,-2.756,-2.7603,-2.7685,-2.7718,-2.7789,-2.7849,-2.7956,-2.8016,-2.8086,-2.81,-2.8118,-2.811,-2.8095,-2.8099,-2.8096,-2.81,-2.8118,-2.8118,-2.8118,-2.8118,0,-2.722,-2.7246,-2.7306,-2.7376,-2.7426,-2.7484,-2.7544,-2.7572,-2.7641,-2.7687,-2.7757,-2.7804,-2.7896,-2.7966,-2.8042,-2.8085,-2.8113,-2.812,-2.813,-2.8115,-2.8092,-2.8104,-2.8059,-2.8118,-2.8118,-2.8118,-2.8118,-2.8118,-2.7233,-2.7273,-2.7343,-2.7408,-2.7459,-2.7513,-2.7558,-2.7609,-2.7668,-2.7747,-2.7778,-2.7849,-2.7918,-2.8022,-2.8066,-2.8123,-2.8127,-2.814,-2.8144,-2.8146,-2.8143,-2.8083,-2.8137,-2.8137,-2.8137,-2.8137,-2.8137,0,-2.7267,-2.7314,-2.7374,-2.7455,-2.7507,-2.7528,-2.7595,-2.7637,-2.7699,-2.7761,-2.7819,-2.79,-2.7968,-2.8033,-2.8105,-2.8138,-2.8153,-2.8155,-2.8153,-2.8162,-2.8136,-2.8121,-2.8142,-2.8142,-2.8142,-2.8142,-2.8142,-2.8142,-2.729,-2.7359,-2.7393,-2.7487,-2.7534,-2.7604,-2.764,-2.769,-2.774,-2.7828,-2.7884,-2.7927,-2.799,-2.8066,-2.813,-2.8147,-2.8172,-2.817,-2.8191,-2.8165,-2.8164,-2.8163,-2.8148,-2.8175,-2.8175,-2.8212,-2.8213,-2.8213]},{"header":{"parameterUnit":"m.s-1","parameterCategory":1,"la1":30.2991,"la2":30.254,"lo1":-89.0895,"lo2":-89.0444,"dy":0.0017,"dx":0.0017,"nx":28,"ny":28,"refTime":"2025-03-28T21:00:00:Z","depth":0,"parameterNumber":3,"parameterNumberName":"V-component_of_WINDS"},"data":[0,0,0,0,0,0,0,0,0,0,0,0,0,0,0,0,0,0,0,0,0,0,0,0,0,0,0,0,0,0,0,0,0,0,0,0,0,0,0,0,0,0,0,0,0,0,0,0,0,0,0,0,0,0,0,0,0,0,5.2848,5.285,0,5.2985,5.2986,5.2988,5.2991,5.299,5.2988,5.2986,5.3121,5.3126,5.3131,0,0,0,0,0,0,0,0,0,0,0,0,0,5.2588,5.2593,5.2848,5.285,5.2851,5.2984,5.2986,5.2988,5.2992,5.299,5.2988,5.2986,5.3119,5.3126,5.3132,0,0,0,0,0,0,0,0,0,0,0,0,0,5.271,5.2594,5.2848,5.2869,5.2873,5.2984,5.2986,5.2988,5.2992,5.299,5.2987,5.2985,5.3117,5.3125,5.3133,5.323,0,0,5.3156,5.3159,0,0,0,0,0,0,0,0,5.2703,5.272,5.2864,5.2868,5.2872,5.2969,5.2944,5.3069,5.2993,5.2947,5.2986,5.2984,5.3072,5.3083,5.3114,5.3236,5.3242,5.3157,5.3161,5.3165,5.3167,0,0,0,0,0,0,0,5.2695,5.2714,5.2902,5.2867,5.2871,5.2871,5.2886,5.2968,5.3021,5.295,5.2951,5.2967,5.3074,5.3107,5.3117,5.3244,5.3156,5.3163,5.3168,5.3171,5.3455,5.3458,0,0,0,0,0,0,5.2683,5.2707,5.2897,5.2906,5.278,5.2878,5.2895,5.294,5.3021,5.3031,5.2969,5.2967,5.3095,5.3108,5.3122,5.3243,5.3165,5.3172,5.3176,5.3452,5.3456,5.3459,0,0,0,0,0,0,5.2677,5.27,5.2892,5.2807,5.2831,5.2885,5.2936,5.2944,5.2977,5.3035,5.3044,5.2994,5.3093,5.3111,5.3204,5.3248,5.3175,5.3182,5.3449,5.3453,5.3457,5.3485,0,0,0,0,0,0,5.2669,5.2698,5.2735,5.2808,5.2836,5.2972,5.2939,5.2948,5.2991,5.2989,5.306,5.3069,5.3093,5.3192,5.3212,5.3257,5.3188,5.3445,5.3451,5.3456,5.348,5.3489,5.3497,0,0,0,0,0,5.266,5.2736,5.2737,5.276,5.2885,5.2975,5.2991,5.3018,5.2994,5.3033,5.3071,5.3067,5.324,5.3202,5.3223,5.3272,5.3442,5.3449,5.3455,5.3476,5.3488,5.3497,0,0,0,0,0,0,5.2665,5.2746,5.2748,5.285,5.2906,5.2975,5.3024,5.3028,5.3091,5.3086,5.3116,5.3132,5.3224,5.3257,5.3213,5.3372,5.3338,5.3349,5.3347,5.3358,5.3366,5.3356,5.3195,0,0,0,0,0,5.2678,5.2746,5.2812,5.2895,5.2924,5.297,5.301,5.3026,5.3085,5.3108,5.3152,5.3208,5.3275,5.3318,5.3383,5.3485,5.3501,5.3529,5.3538,5.3545,5.3554,5.3612,5.3626,5.348,5.348,5.348,0,0,5.2705,5.2758,5.2798,5.2898,5.2943,5.3013,5.2989,5.3062,5.3114,5.3118,5.3209,5.3244,5.3308,5.3407,5.3452,5.3437,5.3598,5.3553,5.3558,5.3564,5.3621,5.3634,5.3647,5.3485,5.3484,5.3483,0,0,5.279,5.2837,5.2913,5.2959,5.303,5.306,5.3078,5.3148,5.3172,5.3265,5.327,5.3331,5.3446,5.3492,5.3531,5.3637,5.3637,5.3658,5.3703,5.3759,5.3771,5.3781,5.3821,5.3834,5.3667,5.3667,5.3667,0,5.2815,5.2921,5.295,5.3025,5.3069,5.3079,5.3156,5.32,5.3286,5.3316,5.3299,5.3445,5.3488,5.3599,5.3626,5.3656,5.3678,5.3649,5.3767,5.3778,5.3788,5.3826,5.384,5.3669,5.3669,5.3668,5.3668,0,5.2948,5.3021,5.3074,5.3161,5.3211,5.3286,5.3327,5.3374,5.3387,5.3419,5.3514,5.3567,5.3644,5.3672,5.3683,5.3785,5.3774,5.3761,5.3728,5.3804,5.384,5.3854,5.3672,5.3671,5.367,5.367,0,0,5.3038,5.3143,5.3162,5.3202,5.3282,5.3339,5.3415,5.3493,5.3533,5.3593,5.3658,5.3757,5.3747,5.3791,5.3808,5.3858,5.3941,5.384,5.3842,5.3858,5.4058,5.4067,5.4083,5.3942,5.3945,5.3947,5.4053,0,5.3133,5.3271,5.3301,5.3419,5.3488,5.35,5.3567,5.3623,5.3655,5.3718,5.3753,5.3824,5.3805,5.3832,5.3882,5.392,5.3982,5.3913,5.4002,5.4005,5.3986,5.4102,5.4111,5.4209,5.4067,5.407,5.4071,0,5.3261,5.3328,5.3454,5.3527,5.3557,5.3617,5.3692,5.3752,5.3815,5.3836,5.3887,5.39,5.398,5.3944,5.4054,5.4007,5.4046,5.407,5.4075,5.4084,5.4043,5.4115,5.424,5.4255,5.4093,5.4092,5.409,0,5.3316,5.3436,5.3528,5.3562,5.365,5.3692,5.373,5.3792,5.3837,5.3902,5.3933,5.4005,5.4045,5.4101,5.4133,5.4104,5.4242,5.4208,5.4261,5.4261,5.429,5.4287,5.4423,5.4314,5.4313,5.4313,5.4313,0,5.3418,5.3495,5.3555,5.3611,5.3698,5.3732,5.3817,5.3855,5.391,5.3974,5.3988,5.4047,5.4086,5.4151,5.4177,5.4265,5.4283,5.4301,5.4307,5.4301,5.4299,5.4326,5.432,5.4317,5.4316,5.4315,5.4315,0,5.3494,5.3536,5.3638,5.3714,5.3734,5.3795,5.386,5.3915,5.3949,5.403,5.4051,5.4104,5.4181,5.422,5.4314,5.4332,5.4433,5.4434,5.4412,5.4414,5.4466,5.4461,5.4625,5.4648,5.4522,5.4523,5.4524,0,5.3557,5.3617,5.37,5.3745,5.3785,5.3857,5.3905,5.3941,5.399,5.4069,5.4115,5.4194,5.4259,5.4382,5.4428,5.4502,5.4505,5.4558,5.4516,5.4508,5.4507,5.4504,5.451,5.4565,5.4566,5.4567,5.4568,0,5.3664,5.3684,5.3753,5.3831,5.3888,5.395,5.4011,5.4047,5.4093,5.4147,5.4228,5.4279,5.4378,5.4456,5.4534,5.4572,5.4578,5.4581,5.4597,5.4591,5.4576,5.4586,5.4433,5.4577,5.4576,5.4575,5.4575,5.4574,5.3736,5.3791,5.386,5.3937,5.3988,5.4045,5.4102,5.4145,5.4213,5.4299,5.4316,5.4402,5.4466,5.4571,5.4612,5.468,5.4668,5.4691,5.4697,5.4703,5.4706,5.4566,5.4693,5.4693,5.4693,5.4693,5.4693,0,5.3846,5.3891,5.3962,5.4049,5.411,5.4113,5.4182,5.4232,5.4309,5.4369,5.4434,5.4528,5.4604,5.4658,5.4736,5.478,5.4784,5.4799,5.4796,5.4805,5.4711,5.469,5.4794,5.4794,5.4794,5.4794,5.4794,5.4794,5.391,5.4004,5.4032,5.4151,5.4196,5.4282,5.4321,5.4375,5.4424,5.4529,5.4594,5.4629,5.4687,5.477,5.484,5.4854,5.4882,5.4897,5.4911,5.4822,5.4811,5.4801,5.4781,5.4903,5.4903,5.4999,5.5,5.5001]}]]